Tracking 19254 objects as of 18-Oct-2018
HD Live streaming from Space Station
objects crossing your sky now

TEMPSAT 1

Track TEMPSAT 1 now!
10-day predictions
TEMPSAT 1 is classified as:


NORAD ID: 1512
Int'l Code: 1965-065E
Perigee: 1,088.9 km
Apogee: 1,193.2 km
Inclination: 89.8 °
Period: 108.0 minutes
Semi major axis: 7512 km
RCS: 0.0695 m2 (small)
Launch date: August 13, 1965
Source: United States (US)
Launch site: AIR FORCE WESTERN TEST RANGE (AFWTR)
aabbcc
Your satellite tracking list
Your tracking list is empty




NASA's NSSDC Master Catalog

Two Line Element Set (TLE):
1  1512U 65065E   18291.16049660  .00000037  00000-0  55628-4 0  9994
2  1512  89.8470 234.3586 0069394 186.3961 270.6453 13.33414024587027
Source of the keplerian elements: AFSPC